Location: Theydon Bois
(51.6750°N, 0.1050°E)
Time: 19:11:57
(UTC+01:00)

Cosmos 1842 Rocket - Visible Passes

Search period start: 24 June 2018 00:00
Search period end: 04 July 2018 00:00
Orbit: 604 x 635 km, 82.5° (Epoch: 23 June)

Date Brightness Start Highest point End Pass type
(mag) Time Alt. Az. Time Alt. Az. Time Alt. Az.
24 Jun 5.1 22:56:17 10° NNW 23:00:09 32° W 23:04:01 10° SSW visible
25 Jun 5.8 23:14:25 10° NW 23:17:32 19° W 23:20:38 10° SW visible
26 Jun 6.3 23:33:21 10° WNW 23:34:50 12° W 23:36:18 10° W visible
27 Jun 4.3 22:10:59 10° NNW 22:15:13 51° W 22:19:28 10° S visible
28 Jun 5.3 22:28:52 10° NNW 22:32:41 30° W 22:36:30 10° SSW visible
29 Jun 6.0 22:47:04 10° NW 22:50:03 18° W 22:53:03 10° SW visible
30 Jun 6.5 23:06:15 10° WNW 23:07:20 11° W 23:08:25 10° W visible
02 Jul 5.5 22:01:28 10° NNW 22:05:14 28° W 22:08:59 10° SSW visible
03 Jul 6.2 22:19:43 10° NW 22:22:35 17° W 22:25:27 10° SW visible
